Home > Weather > Lakewood > Past weeks

Flag for U.S.A. Weather for the Past 2 Weeks in Lakewood, Colorado, U.S.A.

Now
44 °F

Passing clouds.


Feels Like: 37 °F
Forecast: 37 / 62 °F
Wind: 15 mph from Southwest

Location: Centennial Airport

Current Time: Feb 10, 2016 at 9:07:34 AM

Latest Report: Feb 10, 2016 at 7:53 AM


Visibility: 10 mi

Pressure: 30.21 "Hg (24.60 "Hg at 1683m altitude)

Humidity: 28%

Dew point: 13 °F

Location of LakewoodLocation

Historic Weather in Lakewood — Graph

°F

Lakewood Temperature Yesterday

Maximum temperature yesterday: 51 °F (at 1:53 PM)
Minimum temperature yesterday: 24 °F (at 4:53 AM)
Average temperature yesterday: 38 °F

High & Low Weather Summary for the Past Weeks

 TemperatureHumidityPressure
High64 °F (Jan 30, 1:53 PM)96% (Jan 30, 11:53 PM)30.53 "Hg (Jan 30, 11:53 PM)
Low2 °F (Feb 3, 5:53 AM)16% (Jan 29, 2:53 PM)29.37 "Hg (Jan 30, 1:53 PM)
Average31 °F56%30.11 "Hg
* Reported Jan 26 7:53 AM — Feb 10 7:53 AM, Lakewood, Weather by CustomWeather, © 2016

Note: Actual official high and low records may vary slightly from our data, if they occured in-between our weather recording intervals... More about our weather records

Advertising

Lakewood Weather History for the Previous 24 Hours

 ConditionsComfort  
Time TempWeatherWind HumidityBarometerVisibility
7:53 AM
Wed, Feb 10
44 °FPassing clouds.15 mph28%30.21 "Hg10 mi
6:53 AM42 °FPassing clouds.16 mph29%30.19 "Hg10 mi
5:53 AM40 °FClear.14 mph30%30.20 "Hg10 mi
4:53 AM37 °FClear.9 mph34%30.19 "Hg10 mi
3:53 AM42 °FClear.15 mph28%30.16 "Hg10 mi
2:53 AM43 °FClear.16 mph28%30.16 "Hg10 mi
1:53 AM41 °FClear.14 mph32%30.18 "Hg10 mi
12:53 AM39 °FClear.9 mph34%30.22 "Hg10 mi
11:53 PM
Tue, Feb 9
38 °FClear.8 mph36%30.25 "Hg10 mi
10:53 PM38 °FClear.9 mph37%30.27 "Hg10 mi
9:53 PM34 °FClear.5 mph52%30.32 "Hg10 mi
8:53 PM38 °FClear.8 mph48%30.34 "Hg10 mi
7:53 PM38 °FClear.9 mph51%30.37 "Hg10 mi
6:53 PM39 °FClear.7 mph48%30.37 "Hg10 mi
5:53 PM41 °FClear.10 mph47%30.36 "Hg10 mi
4:53 PM48 °FSunny.5 mph33%30.35 "Hg10 mi
3:53 PM50 °FSunny.7 mph28%30.32 "Hg10 mi
2:53 PM50 °FPassing clouds.7 mph28%30.32 "Hg10 mi
1:53 PM51 °FPassing clouds.7 mph24%30.31 "Hg10 mi
12:53 PM48 °FPassing clouds.7 mph32%30.32 "Hg10 mi
11:53 AM47 °FSunny.10 mph29%30.33 "Hg10 mi
10:53 AM45 °FSunny.7 mph35%30.36 "Hg10 mi
9:53 AM41 °FPassing clouds.8 mph45%30.38 "Hg10 mi
Weather by CustomWeather, © 2016

See weather overviewHow to use our weather pages